Flag for U.S.A. Weather past 2 weeks in Fall River, Massachusetts, U.S.A.

Now
82 °F

Sunny.


Feels Like: 85 °F
Forecast: 60 / 84 °F
Wind: 6 mph from Southwest

Location: New Bedford Regional Airport

Current Time: Jul 22, 2014 at 11:59:46 AM

Latest Report: Jul 22, 2014 at 10:53 AM


Visibility: 10 mi

Pressure: 30.11 "Hg

Humidity: 65%

Dew point: 69 °F

Location of Fall RiverLocation

Historic Weather in Fall River — Graph

°F

Fall River temperature yesterday

Maximum temperature yesterday: 77 °F (at 1:53 PM)
Minimum temperature yesterday: 62 °F (at 1:02 AM)
Average temperature yesterday: 68 °F

Past Weeks' High & Low Weather Summary

 TemperatureHumidityPressure
High87 °F (Jul 8, 12:53 PM)100% (Jul 12, 5:53 AM)30.27 "Hg (Jul 12, 5:53 AM)
Low58 °F (Jul 12, 4:53 AM)43% (Jul 12, 11:53 AM)29.72 "Hg (Jul 9, 1:53 AM)
Average72 °F79%30.02 "Hg
* Reported Jul 7 11:00 AM — Jul 22 10:53 AM, Fall River, Weather by CustomWeather, © 2014

Note: Actual official high and low records may vary slightly from our data, if they occured in-between our weather recording intervals... More about our weather records

Advertising

Fall River weather history for previous 24 hours

 ConditionsComfort  
Time TempWeatherWind HumidityBarometerVisibility
10:53 AM
Jul 22
82 °FSunny.6 mph65%30.11 "Hg10 mi
9:53 AM78 °FSunny.5 mph69%30.12 "Hg10 mi
8:53 AM73 °FSunny.6 mph79%30.14 "Hg10 mi
7:53 AM69 °FSunny.No wind84%30.15 "Hg10 mi
6:53 AM63 °FSunny.3 mph93%30.15 "Hg10 mi
5:53 AM60 °FClear.No wind96%30.15 "Hg9 mi
4:53 AM60 °FClear.No wind96%30.15 "Hg10 mi
3:53 AM59 °FClear.No wind96%30.14 "Hg9 mi
2:53 AM58 °FClear.No wind100%30.14 "Hg10 mi
1:53 AM60 °FClear.No wind96%30.14 "Hg10 mi
12:53 AM61 °FClear.No wind97%30.15 "Hg7 mi
12:00 AM61 °FFog.No wind97%30.16 "Hg2 mi
10:53 PM
Jul 21
62 °FClear.No wind96%30.16 "Hg8 mi
9:53 PM64 °FClear.No wind94%30.17 "Hg10 mi
8:53 PM67 °FSunny.No wind85%30.15 "Hg10 mi
7:53 PM70 °FSunny.3 mph76%30.15 "Hg10 mi
6:53 PM75 °FSunny.3 mph64%30.14 "Hg10 mi
5:53 PM77 °FSunny.7 mph60%30.14 "Hg10 mi
4:53 PM77 °FSunny.N/A60%30.13 "Hg10 mi
3:53 PM77 °FSunny.5 mph58%30.14 "Hg10 mi
2:53 PM77 °FSunny.8 mph56%30.15 "Hg10 mi
1:53 PM77 °FPassing clouds.8 mph56%30.16 "Hg10 mi
12:53 PM76 °FSunny.10 mph60%30.16 "Hg10 mi
11:53 AM73 °FSunny.8 mph66%30.17 "Hg10 mi
Weather by CustomWeather, © 2014

See weather overviewHow to use our weather pages